Terminal Aerodrome Forecast
Issued by NWS

Home | Current Version | Previous Version | Text Only | Print | Product List | Glossary On
Versions: 1 2 3 4 5 6 7 8 9 10 11 12 13 14 15
345
FTUS46 KPDT 060537
TAFPSC
TAF
KPSC 060537Z 0606/0706 22011KT P6SM VCSH SCT060 OVC090
     FM060800 22013G20KT P6SM SCT090
     FM061600 23012KT P6SM SCT150 BKN200
     FM070200 27005KT P6SM SCT100 BKN150=

USA.gov is the U.S. government's official web portal to all federal, state and local government web resources and services.